Regional Weather Roundup
Issued by NWS

Home | Current Version | Previous Version | Graphics & Text | Print | Product List | Glossary On
Versions: 1 2 3 4 5 6 7 8 9 10 11 12 13 14 15 16 17 18 19 20 21 22 23 24 25 26 27 28 29 30 31 32 33 34 35 36 37 38 39 40 41 42 43 44 45 46 47 48 49 50
199
ASUS44 KLIX 012105
RWRLA
LOUISIANA WEATHER ROUNDUP
NATIONAL WEATHER SERVICE NEW ORLEANS LA
300 PM CST SUN FEB 01 2015

NOTE: "FAIR" INDICATES FEW OR NO CLOUDS BELOW 12,000 FEET WITH NO
      SIGNIFICANT WEATHER AND/OR OBSTRUCTIONS TO VISIBILITY.
      SKY/WX - SKY CONDITION AND SIGNIFICANT WEATHER.
      TMP - AIR TEMPERATURE.    DP   - DEWPOINT TEMPERATURE.
      RH  - RELATIVE HUMIDITY.  PRES - PRESSURE.
      HX  - HEAT INDEX.         WCI  - WIND CHILL INDEX.

*  THESE STATIONS ARE NOT NWS OR FAA STATIONS AND ARE NOT UNDER
   NWS QUALITY CONTROL.

LAZ040-048-061>063-065-066-069-012200-
SOUTHEAST LOUISIANA

CITY           SKY/WX    TMP DP  RH WIND       PRES   REMARKS
N.O. AUDUBON     N/A     73  64  74 MISG        N/A
N.O. INTL ARPT CLOUDY    74  57  55 SW16G24   29.90F
N.O. LAKEFRONT CLOUDY    70  61  73 SW10      29.91F
N.O. DOWNTOWN* NOT AVBL
SLIDELL        LGT RAIN  69  61  75 SW3       29.90F
BATON ROUGE    CLOUDY    66  63  90 SW13      29.88F
BOOTHVILLE     CLOUDY    71  65  81 SW6       29.94F
BELLE CHASSE   PTSUNNY   74  60  61 SW14G24   29.91F
BOGALUSA*      HVY RAIN  66  62  86 SW5       29.92S
GALLIANO*      CLOUDY    73  65  76 MISG      29.93F
NEW ROADS*     CLOUDY    70  64  81 S10G18    29.86F
GONZALES*      CLOUDY    68  65  89 CALM      29.90F
HAMMOND*       DRIZZLE   68  63  83 SW7       29.91F
HOUMA*         NOT AVBL
PORT FOURCHON* MOCLDY    70  64  83 W7        29.96F

$$

LAZ041-044-053-054-012200-
SOUTHWEST LOUISIANA

CITY           SKY/WX    TMP DP  RH WIND       PRES   REMARKS
LAKE CHARLES   PTSUNNY   73  62  68 SW17G24   29.86F
LAFAYETTE      PTSUNNY   71  65  81 SW16      29.87F
PATTERSON      CLOUDY    70  61  73 SW20G25   29.92S
SALT POINT       N/A     66  61  84 SW6       29.90F
NEW IBERIA     CLOUDY    71  66  84 SW10      29.89F
CHENAULT AIRPK NOT AVBL

$$

LAZ027-028-012200-
CENTRAL LOUISIANA

CITY           SKY/WX    TMP DP  RH WIND       PRES   REMARKS
FORT POLK      PTSUNNY   73  59  62 SW16      29.83S
ALEXANDRIA INT PTSUNNY   75  59  57 SW16G29   29.80F
ALEXANDRIA     PTSUNNY   74  59  59 W12       29.81F

$$

LAZ001-002-012200-
NORTHWEST LOUISIANA

CITY           SKY/WX    TMP DP  RH WIND       PRES   REMARKS
SHREVEPORT     CLOUDY    59  55  87 NW15      29.87R
BARKSDALE AFB  CLOUDY    58  55  90 NW18      29.86R
DTN SHREVEPORT CLOUDY    58  52  80 NW18      29.87R

$$

LAZ014-016-012200-
NORTHEAST LOUISIANA

CITY           SKY/WX    TMP DP  RH WIND       PRES   REMARKS
MONROE         TSTM      61  56  83 W15G32    29.81R
TALLULAH       PTSUNNY   72  59  63 SW9G16    29.80F

$$




USA.gov is the U.S. government's official web portal to all federal, state and local government web resources and services.